GFSMW_prec_cthk_000.txt.gz
RH
51 53 55 59 62 67 75 81 85 87 74 71 74 71 75 84 83 75 68 64 62 59 51 44 41 42 42 41 40 41 39 37 35 35 35 37 39 39 37 37 36 34 36
54 54 61 67 72 75 77 74 68 67 70 69 70 72 66 62 61 60 60 58 51 44 41 42 44 45 43 43 43 41 40 40 37 37 37 35 32 29 27 25 24 28 30
61 65 68 71 67 64 56 52 55 56 57 56 56 58 58 59 59 56 52 47 45 46 47 47 46 46 48 48 49 44 41 39 41 37 34 32 32 28 22 20 19 21 22
56 59 56 54 51 48 51 58 57 55 57 59 62 63 62 58 54 52 50 50 51 52 54 53 48 47 50 49 43 38 33 33 33 31 31 34 39 40 34 30 25 23 23
58 59 60 61 59 60 57 56 54 56 56 56 57 55 52 51 52 52 51 52 53 51 48 45 44 40 41 38 34 34 37 37 35 34 33 33 36 43 50 41 39 34 28
55 58 60 62 66 60 58 58 60 58 52 52 51 53 54 55 54 52 50 51 49 46 40 37 36 35 36 38 42 41 41 36 37 37 40 37 40 39 40 41 38 34 23
55 60 69 57 57 59 58 60 59 57 54 54 57 57 57 56 53 52 50 48 42 35 30 29 32 37 35 42 50 45 60 58 52 46 48 52 45 43 38 41 38 36 28
55 63 62 52 55 60 64 66 65 63 61 58 57 56 54 51 48 43 37 33 29 27 25 28 33 37 38 50 46 58 65 64 57 58 55 55 50 47 39 38 36 31 32
56 50 51 53 55 58 62 65 66 66 61 58 54 52 48 43 36 31 27 22 19 18 24 35 42 57 51 62 66 65 61 61 64 64 59 56 48 46 43 42 44 46 39
48 51 51 54 56 59 66 65 70 68 65 61 59 50 45 40 31 26 22 18 15 21 33 43 52 59 62 63 59 58 58 59 60 59 52 51 46 45 44 47 46 47 47
50 54 57 60 64 66 71 74 73 67 67 59 50 47 41 33 28 23 20 18 20 30 39 44 45 45 46 42 45 46 50 54 52 47 42 44 44 43 43 43 42 46 53
56 58 62 67 70 76 75 67 70 73 60 54 49 44 37 33 28 24 21 20 22 29 37 38 42 43 40 45 51 58 55 48 41 39 38 41 43 41 39 42 52 60 61
57 61 67 69 69 67 66 75 70 58 57 54 50 41 37 33 29 25 22 21 27 35 39 43 43 40 47 54 57 54 43 37 35 36 42 43 42 38 41 54 64 68 71
59 63 65 65 63 68 76 65 60 59 59 54 46 42 38 35 29 24 23 25 31 35 38 42 40 46 56 58 60 54 41 37 37 43 44 43 44 41 52 69 77 80 83
61 63 64 64 71 75 66 61 60 60 54 50 46 42 38 33 27 26 27 28 31 32 42 40 42 51 62 62 61 58 46 39 39 42 42 44 43 46 70 80 85 88 90
62 63 66 72 69 61 59 61 59 54 53 49 44 41 35 30 27 28 29 32 37 42 46 45 50 66 64 65 70 61 42 39 37 37 41 42 39 57 77 85 92 94 94
62 63 61 62 62 61 61 58 55 55 52 47 43 38 34 30 29 30 33 36 42 49 53 57 69 67 67 73 75 54 43 37 35 41 42 41 43 71 80 87 91 95 97
61 61 63 66 66 60 57 56 55 54 51 44 40 36 33 32 30 33 36 41 46 53 58 63 68 73 76 75 60 46 38 37 40 44 43 42 57 78 86 92 95 96 98
61 64 68 67 60 56 58 58 57 52 44 40 36 35 34 32 32 34 40 44 51 60 64 69 74 72 62 53 48 42 39 38 45 45 46 47 70 84 92 94 95 97 98
63 67 67 63 61 59 59 58 53 45 40 38 37 33 34 36 36 39 46 50 55 62 65 63 55 49 54 51 46 43 40 45 45 47 49 53 78 87 93 95 96 98 99
70 70 69 67 65 62 59 56 46 42 40 36 31 31 36 37 42 44 51 54 57 58 56 55 53 56 53 48 45 42 46 47 46 46 51 57 82 81 78 72 84 99 98
72 74 77 74 66 60 56 47 43 41 37 31 29 30 33 38 46 50 54 51 52 52 52 53 54 53 53 48 46 48 50 50 42 40 51 59 77 73 73 66 71 99 99
76 83 81 70 62 59 50 45 43 40 32 29 27 28 32 41 51 54 56 59 61 61 62 58 53 55 53 49 52 53 52 49 41 36 46 54 71 74 74 72 64 89 98
91 84 72 66 62 53 48 45 41 32 29 25 26 29 36 46 56 59 64 69 70 69 62 55 54 55 55 56 59 56 50 47 44 39 40 55 76 80 76 74 69 64 96
83 73 69 65 56 50 46 42 33 28 24 25 29 35 43 51 59 65 70 76 79 67 56 53 55 58 59 62 61 54 47 46 46 44 44 46 61 82 82 75 71 59 78
75 72 67 57 52 46 41 33 28 25 26 27 34 42 49 56 62 70 77 83 67 59 58 57 59 61 62 64 60 51 49 48 49 50 49 50 51 73 81 84 74 64 54

GFSMW_prec_cthk_003.txt.gz
RH
53 56 58 60 61 65 72 81 82 76 62 58 57 57 59 58 57 53 53 52 52 49 46 44 44 44 43 43 43 41 40 40 37 36 36 31 27 27 30 26 25 21 19
54 57 59 65 72 80 79 67 54 51 55 58 56 57 54 50 50 52 51 49 47 47 48 47 47 47 47 47 46 43 38 35 30 28 29 26 25 26 22 25 23 21 18
59 63 67 67 63 57 57 54 53 55 53 50 52 51 52 51 50 49 48 48 49 47 47 48 48 48 47 44 38 35 31 31 28 26 28 30 30 34 28 28 28 29 28
58 59 56 58 60 60 56 56 58 55 56 56 52 51 53 54 53 54 55 54 51 50 48 48 46 42 38 35 33 29 29 30 32 33 33 31 38 40 34 34 33 31 30
55 52 50 52 56 57 63 61 56 60 58 59 57 58 57 57 55 57 57 54 51 46 42 39 34 29 27 27 26 27 28 38 41 42 42 41 44 48 48 38 34 36 35
58 56 54 54 56 64 58 52 57 61 64 67 69 66 62 58 58 57 52 47 43 37 32 26 24 24 27 34 42 41 48 43 42 43 40 40 50 53 59 48 48 43 40
54 55 56 58 58 53 53 56 59 63 64 65 65 63 59 58 52 43 38 35 29 26 23 24 27 33 40 44 47 55 48 50 46 47 49 49 50 48 57 57 48 47 43
54 55 58 56 52 52 55 57 59 63 63 62 62 58 58 54 46 41 35 29 26 23 20 20 27 36 41 45 52 52 61 48 49 48 51 48 49 50 48 51 56 48 42
50 54 56 50 51 53 57 59 59 64 64 60 60 61 55 48 45 40 34 28 25 23 22 25 34 41 49 46 60 46 39 38 39 45 52 49 49 45 43 43 47 50 43
51 52 50 51 53 57 60 62 62 67 64 65 67 56 50 46 41 36 31 27 24 22 27 35 44 51 46 44 40 37 39 43 47 49 43 37 33 35 41 46 47 45 45
47 50 52 55 59 63 66 68 73 75 66 64 58 51 47 44 39 34 29 27 25 25 30 40 48 41 45 47 39 43 47 48 45 41 34 33 37 42 44 44 44 46 46
49 53 57 61 64 68 70 72 70 63 70 60 54 50 48 42 38 33 31 28 26 28 35 40 42 43 48 40 46 51 54 53 47 37 35 36 38 41 45 46 49 45 57
50 56 59 63 67 69 69 69 67 72 61 55 50 50 45 42 39 34 31 29 27 28 34 38 42 42 40 46 53 54 56 56 53 44 36 36 39 43 47 50 46 54 72
50 55 61 65 68 66 66 76 65 58 55 53 51 50 45 44 40 33 30 29 28 31 35 43 43 45 47 52 60 61 60 65 61 42 36 35 41 48 47 50 52 71 79
48 53 58 64 62 70 67 53 59 58 55 53 53 49 48 45 38 33 29 29 31 36 37 44 43 48 53 62 64 64 70 67 51 40 35 37 41 44 47 50 66 79 84
48 54 58 60 68 55 54 62 62 58 53 56 53 51 47 43 36 30 28 31 35 40 41 46 49 55 63 76 70 73 71 55 42 37 38 39 43 47 47 56 74 82 87
49 54 57 59 56 57 62 66 61 54 57 59 53 49 46 39 32 30 30 32 35 40 45 51 56 64 66 70 72 65 50 43 42 40 38 44 47 49 55 68 79 86 90
49 54 59 58 60 64 67 63 56 59 62 56 49 47 41 35 32 31 31 32 35 40 48 55 60 61 61 60 52 48 43 42 41 40 44 47 51 54 60 76 84 87 92
55 61 60 61 64 68 65 59 61 62 60 51 47 42 36 32 32 32 34 34 38 45 48 51 53 52 51 49 51 47 43 42 42 45 47 49 53 57 62 77 73 67 87
61 64 65 65 70 67 64 64 65 65 54 48 43 36 30 29 32 33 36 38 43 48 48 49 50 54 51 52 50 47 42 44 47 44 45 48 51 55 62 71 66 67 88
63 65 72 80 74 73 71 68 67 58 50 44 36 29 27 28 30 32 41 44 48 47 49 54 55 56 55 54 52 47 46 49 47 42 37 46 44 52 67 73 71 70 82
66 76 75 71 78 76 73 69 61 52 46 36 28 25 26 27 27 34 43 50 51 55 61 65 64 60 55 53 51 50 51 50 46 40 36 42 52 58 70 76 72 67 71
75 79 74 86 80 78 72 63 53 47 37 29 26 26 26 24 29 39 48 55 58 63 71 73 63 58 53 53 53 55 54 48 45 43 40 39 43 56 73 79 76 69 62
76 82 92 82 82 74 66 54 48 37 30 28 27 26 24 26 36 46 53 59 64 71 75 61 54 55 54 55 56 58 53 46 45 46 45 44 45 47 61 84 79 71 59
94 93 85 83 74 68 58 49 39 32 30 29 28 25 29 34 43 51 59 66 72 76 65 57 56 57 56 57 59 59 49 47 47 47 50 50 51 54 56 75 85 75 64
90 86 83 74 65 58 50 42 35 32 31 30 30 32 35 41 47 54 63 72 75 70 61 62 59 56 57 59 62 57 49 49 50 50 49 52 53 54 54 58 79 84 72

GFSMW_prec_cthk_006.txt.gz
RH
52 54 56 60 61 64 66 72 78 66 58 53 51 50 49 51 50 46 43 44 46 46 47 47 46 46 46 46 46 46 46 45 43 35 32 30 29 36 37 41 37 34 32
51 56 59 61 64 71 77 76 64 61 55 54 54 52 52 47 45 48 49 52 53 53 54 53 52 49 48 49 49 46 41 37 40 38 32 29 27 30 40 37 33 33 38
51 57 63 68 73 73 67 63 63 55 53 53 46 48 49 52 55 59 59 56 55 56 54 52 49 46 46 45 41 35 32 33 34 40 36 31 28 30 30 35 34 37 35
59 63 65 61 61 57 57 56 55 54 49 46 49 54 59 63 64 67 64 63 58 52 48 47 44 41 36 32 36 33 31 33 31 32 35 38 36 39 37 39 45 42 42
62 58 55 58 56 54 53 51 53 50 49 52 56 58 61 63 62 61 60 54 50 47 44 42 36 32 31 37 33 35 35 38 38 43 43 42 42 42 45 42 45 47 48
55 51 54 56 57 54 50 51 50 51 55 59 62 62 61 60 59 55 47 44 41 37 34 32 32 32 34 36 35 37 46 50 55 50 43 43 49 52 52 51 46 44 42
50 51 55 58 56 54 54 52 56 57 59 61 63 62 59 59 55 45 42 38 36 34 32 29 29 36 39 38 47 55 54 51 55 50 44 48 53 56 60 60 56 47 44
49 50 54 58 55 57 55 56 60 61 61 60 62 71 62 54 50 46 39 37 34 33 32 31 32 35 40 47 56 62 50 47 47 49 51 57 63 61 59 56 52 42 40
46 49 54 58 57 55 56 60 62 62 60 64 80 69 63 55 49 40 36 35 34 33 35 35 35 42 49 53 58 53 47 48 48 53 58 57 59 58 49 51 53 55 44
47 52 54 57 56 57 61 63 64 66 69 76 74 57 56 52 42 35 35 35 35 36 35 42 44 42 51 50 48 47 51 50 55 58 59 57 50 48 51 51 52 54 56
45 50 51 54 57 61 63 65 67 69 74 71 68 59 50 45 40 40 39 37 35 36 33 37 40 43 47 46 59 52 50 54 59 62 61 60 54 53 52 51 53 57 60
45 48 51 55 60 61 63 67 69 73 70 72 57 52 50 46 42 44 44 41 36 33 33 33 38 43 46 48 45 49 56 60 65 64 66 68 61 52 47 50 59 63 62
42 45 49 54 60 63 65 67 71 69 71 53 52 54 49 44 46 48 45 40 37 35 33 36 38 40 42 43 50 56 62 66 67 69 71 64 54 48 49 54 56 57 56
42 47 50 56 60 64 66 69 64 68 54 54 56 53 47 47 50 48 43 38 34 32 36 39 41 40 40 46 55 62 71 72 72 73 64 50 47 48 49 49 54 56 59
42 46 49 54 58 61 62 62 67 56 56 57 57 52 48 51 52 48 40 34 32 35 39 38 39 43 48 54 61 68 75 70 63 52 42 43 44 41 42 50 55 59 66
41 46 50 52 56 58 61 65 58 58 60 59 55 52 53 54 51 44 35 31 32 37 43 47 52 52 55 60 62 63 62 56 46 44 43 43 42 47 48 53 57 62 72
40 43 46 53 58 59 62 62 62 63 61 56 57 58 55 52 46 36 33 35 33 39 43 48 58 56 59 53 51 48 47 47 44 45 43 43 48 52 55 58 62 69 72
38 43 50 56 60 64 64 64 64 64 59 62 67 57 53 47 40 37 37 36 38 41 43 49 51 54 50 48 49 47 47 45 46 44 48 49 51 55 54 55 63 74 78
45 50 57 62 64 64 65 67 73 69 68 73 63 54 47 39 36 35 36 38 42 42 47 50 50 54 54 56 53 52 48 46 44 51 50 47 49 49 46 53 68 76 78
50 56 63 65 65 67 72 82 72 67 76 69 56 50 39 32 31 34 36 39 40 44 46 46 49 54 61 58 54 51 49 46 51 51 48 43 43 45 51 60 70 84 79
59 63 66 66 65 73 80 72 70 79 72 59 52 43 35 32 32 30 34 38 42 48 47 49 55 63 63 58 55 51 48 50 48 50 46 44 37 44 52 59 76 78 73
65 69 68 68 82 88 80 78 80 75 65 54 44 41 37 33 31 32 32 40 44 52 53 57 64 66 56 54 53 52 50 51 45 42 48 41 40 41 45 56 72 77 75
71 72 74 86 85 87 83 83 79 67 54 46 43 41 42 37 34 32 35 43 49 55 59 65 69 63 61 57 53 51 53 50 43 42 43 44 45 45 47 53 68 85 81
76 79 84 89 93 93 90 78 68 58 50 49 46 45 40 29 33 35 38 46 53 59 65 71 64 62 61 61 59 56 58 52 47 48 48 46 49 50 51 56 60 87 84
79 88 95 97 91 86 77 70 61 53 49 45 43 40 36 33 35 34 43 49 57 63 70 67 61 61 58 60 57 59 59 52 48 46 48 50 52 53 55 57 58 68 89
91 95 95 93 86 77 70 63 54 51 46 43 44 42 38 37 34 36 42 49 58 63 65 60 63 62 53 54 55 58 58 49 46 45 48 52 51 52 52 54 55 58 74

GFSMW_prec_cthk_009.txt.gz
RH
56 57 60 63 67 70 72 75 79 81 77 65 58 54 50 44 42 43 42 44 46 49 51 54 55 56 54 53 50 49 52 46 40 41 45 42 37 36 35 41 49 50 44
55 56 61 64 73 77 78 81 82 75 64 58 58 56 49 47 44 45 47 53 56 57 58 57 57 57 53 50 49 52 50 43 40 40 42 37 32 30 33 33 34 34 42
56 59 62 70 74 75 76 75 66 59 54 55 50 45 45 47 52 55 56 58 57 57 54 52 52 51 50 46 43 44 48 41 38 37 38 37 38 36 36 33 32 33 38
53 60 65 67 72 75 72 66 59 55 51 49 47 49 53 56 58 59 58 59 59 53 48 45 44 46 45 43 41 47 48 41 43 41 40 40 40 38 35 36 37 42 43
53 59 67 67 66 65 64 61 55 50 47 46 48 51 55 61 63 60 59 56 47 41 37 34 34 35 39 42 43 50 49 45 44 43 42 38 44 44 41 39 45 47 47
57 64 61 61 58 57 58 55 51 49 49 50 52 55 60 61 66 63 61 52 43 39 33 34 35 34 38 44 51 50 45 49 49 53 50 41 43 41 46 46 43 49 49
52 52 53 49 53 56 53 51 51 51 52 54 56 56 59 68 68 63 50 42 40 35 34 36 37 39 42 47 41 39 43 55 58 59 46 44 49 52 57 58 56 51 47
47 46 46 45 48 52 52 51 51 51 53 55 56 57 65 74 72 50 46 41 36 34 35 39 42 46 44 41 44 54 54 57 62 48 47 52 53 60 62 63 61 47 47
42 41 44 47 49 54 53 53 53 53 54 58 63 67 68 66 59 51 43 39 36 35 41 43 47 46 44 51 53 46 46 53 51 48 57 58 62 61 62 61 63 62 53
40 40 42 47 51 53 55 54 53 52 57 65 64 63 66 62 56 44 42 40 38 40 42 40 41 45 49 46 48 51 50 60 59 53 61 62 64 65 65 68 68 65 58
37 39 41 47 47 51 53 54 54 55 62 67 64 65 65 63 48 45 44 42 43 45 40 37 37 39 44 50 51 50 46 59 60 60 67 68 69 70 71 72 70 64 61
37 41 43 44 46 50 52 54 56 60 65 68 69 64 60 52 48 48 47 46 49 44 38 39 40 45 44 43 41 47 49 55 65 69 70 70 72 72 68 63 60 57 58
37 42 42 44 46 50 52 55 60 63 67 70 67 64 62 53 52 52 50 53 47 41 42 42 46 46 46 48 54 52 59 67 68 72 72 70 63 54 54 55 53 51 52
38 43 43 46 49 52 56 61 65 65 68 68 68 63 59 58 55 55 58 54 45 41 41 46 46 44 48 47 51 55 59 63 70 75 71 54 45 45 44 43 42 50 52
35 40 45 50 54 57 61 64 62 66 65 74 66 62 61 60 61 61 58 52 44 42 42 47 47 52 56 53 46 52 59 62 59 56 51 45 44 42 40 43 48 54 56
36 41 45 50 53 55 58 60 63 66 71 69 68 63 68 69 65 60 58 49 44 44 47 51 50 54 57 53 53 43 45 46 49 50 44 45 48 49 49 51 52 52 55
36 39 43 48 53 54 56 62 69 69 70 73 65 71 76 72 63 60 53 51 50 52 52 53 49 53 55 51 44 44 49 51 50 48 47 48 50 53 53 51 47 54 58
39 43 46 48 52 56 59 70 70 68 78 65 79 82 79 68 62 54 52 53 56 59 57 53 53 54 50 50 48 53 54 53 51 49 47 51 51 50 45 38 48 58 65
41 43 47 53 60 63 66 72 73 75 70 88 80 80 72 65 56 52 54 59 54 56 57 56 53 50 53 51 54 57 52 52 51 49 52 49 46 42 38 43 54 59 70
46 50 55 61 65 67 71 72 74 85 89 82 82 83 69 59 52 56 52 51 56 55 57 56 51 47 53 53 57 51 50 50 51 53 52 48 41 39 34 37 43 60 72
55 59 65 71 73 72 74 78 86 85 84 81 86 77 63 60 61 49 48 50 48 52 55 54 51 52 54 58 50 50 50 50 49 52 48 50 44 39 39 41 44 56 65
65 68 74 74 73 75 80 85 88 88 88 89 80 67 63 57 52 51 46 52 54 53 54 51 56 59 60 57 52 48 49 48 49 46 46 44 40 41 42 45 49 52 69
65 66 67 75 79 84 90 94 92 94 90 76 68 63 59 58 56 50 47 46 53 54 52 57 59 66 63 61 58 51 50 50 52 44 42 40 40 41 45 49 51 53 67
61 65 70 77 84 89 95 97 90 84 78 65 63 58 58 59 46 42 42 50 50 51 54 60 63 66 64 64 64 55 53 54 53 47 44 41 43 45 47 50 53 56 59
71 75 84 90 92 93 91 88 83 74 67 63 60 59 53 51 49 43 42 42 44 46 56 62 66 63 57 61 53 58 60 61 58 47 42 44 49 48 48 50 51 52 55
85 88 91 93 94 91 87 82 74 67 63 59 56 57 56 50 44 37 36 38 40 45 52 61 66 62 63 60 54 53 55 56 57 48 46 46 48 47 47 48 49 49 52

GFSMW_prec_cthk_012.txt.gz
RH
52 50 49 53 60 63 64 63 68 70 74 78 59 49 49 44 37 37 37 39 42 44 45 47 49 48 45 42 38 38 42 42 41 39 36 34 33 33 33 34 33 36 42
53 53 54 54 58 66 69 72 71 71 70 61 54 54 51 41 39 39 42 44 45 47 51 51 46 42 39 35 36 38 37 38 42 39 35 34 34 34 33 30 30 32 34
52 55 56 59 65 69 72 72 75 70 61 50 48 48 42 42 46 47 47 49 50 55 56 47 41 37 33 33 34 37 40 42 42 40 38 36 36 36 33 29 29 29 27
48 52 56 59 64 69 73 71 71 61 53 50 46 46 46 47 48 50 55 54 55 52 45 36 33 31 29 30 34 40 41 40 39 37 34 34 36 36 34 34 30 30 33
42 47 51 56 64 66 68 69 62 53 51 48 48 47 46 48 48 53 58 58 58 50 40 37 33 30 28 29 35 41 42 39 35 33 33 34 40 41 40 34 29 28 28
41 48 48 54 62 66 62 58 53 51 49 48 46 45 47 48 48 53 58 61 49 42 36 35 32 30 32 36 41 40 37 36 38 36 44 47 45 47 42 36 33 35 33
41 49 52 58 64 59 51 50 50 48 49 47 46 46 49 50 52 57 54 53 51 41 35 35 33 31 39 40 37 36 36 35 40 43 45 46 42 42 39 42 43 46 38
49 53 56 57 57 50 49 50 48 48 47 46 46 48 53 57 57 56 52 54 54 42 36 36 33 40 43 40 32 35 41 41 44 50 53 53 42 50 49 50 49 43 44
46 48 50 47 44 44 46 47 48 48 47 46 47 51 56 61 62 56 51 51 44 37 39 35 40 44 46 38 39 38 40 40 43 53 54 60 47 51 52 58 59 60 52
41 41 42 40 39 41 46 47 49 48 45 46 51 56 61 66 64 56 51 53 45 40 39 42 43 37 38 45 47 43 47 47 45 59 63 57 50 61 65 60 61 65 65
35 33 34 37 38 40 44 46 50 49 47 50 56 59 65 66 65 61 62 56 44 42 47 46 41 36 38 43 44 45 43 47 48 63 63 61 65 72 61 54 56 49 49
33 33 34 37 38 41 45 46 52 50 49 54 59 65 68 69 72 62 58 49 48 53 52 45 40 43 50 48 41 42 44 52 50 48 59 65 62 65 60 54 42 42 43
35 35 37 39 40 44 49 50 54 54 56 61 69 72 71 81 73 73 60 54 58 58 53 47 46 54 51 47 48 51 54 54 60 58 61 55 61 57 49 35 37 39 39
37 40 44 45 46 48 51 56 59 60 67 69 76 73 75 78 74 68 62 65 69 62 54 51 53 59 51 56 56 60 56 52 51 53 51 51 44 39 37 37 38 39 44
41 44 48 53 54 51 54 59 62 64 67 70 74 77 78 75 72 69 71 76 74 60 57 55 63 63 58 64 64 59 50 47 43 42 44 44 41 40 39 41 43 45 46
28 39 46 51 53 58 61 62 62 61 64 76 74 76 76 76 80 84 76 70 65 62 64 66 65 65 64 62 59 56 51 37 41 46 43 41 43 44 47 47 46 44 42
29 34 42 49 53 54 56 59 60 62 67 75 75 76 79 83 88 80 75 73 66 74 71 70 73 69 65 51 49 50 46 50 51 46 40 42 45 47 45 44 41 41 48
39 40 39 41 45 51 54 59 63 66 71 75 76 78 86 91 89 83 74 66 77 68 71 73 76 65 61 60 53 51 52 56 47 44 42 44 48 43 41 36 33 35 44
39 39 42 44 50 56 61 64 70 74 73 76 81 89 94 88 83 74 73 72 65 67 69 69 67 66 55 51 55 53 57 51 46 43 44 47 48 42 40 36 34 36 40
39 45 49 57 62 67 72 69 73 79 83 84 91 89 91 90 81 77 70 65 64 62 62 64 61 60 52 53 53 62 55 49 45 43 44 48 45 43 42 38 38 38 41
47 55 62 66 68 70 73 78 82 85 86 94 92 92 92 83 76 70 66 65 59 55 54 52 51 51 49 52 61 61 50 47 44 43 47 49 44 43 40 39 40 42 43
58 61 61 62 68 74 81 81 82 89 94 92 95 92 82 77 74 70 64 58 53 47 51 48 44 43 49 54 61 60 55 49 45 47 48 45 43 40 39 40 43 45 45
57 57 62 68 74 78 82 87 93 95 97 95 92 82 75 70 67 61 51 43 41 45 48 44 44 49 59 57 61 59 57 52 50 50 48 44 40 39 39 40 44 44 44
61 61 67 73 77 80 85 88 93 94 96 89 81 73 70 65 57 53 45 38 40 42 40 42 49 58 64 71 58 56 55 55 55 53 51 45 41 40 39 41 44 44 45
72 73 74 78 80 83 86 90 91 90 83 75 70 66 58 53 49 44 40 37 34 38 42 51 56 64 73 77 68 61 57 59 57 56 55 47 42 40 41 41 43 43 41
81 81 82 81 80 81 81 77 78 75 72 65 58 53 48 43 40 39 36 36 36 42 47 53 58 66 73 75 72 74 70 61 60 56 53 49 44 43 42 42 43 43 43